User: anonymous   Login
Location: Unspecified
(0.0000°N, 0.0000°E)
Time: 23:13:18
(UTC+00:00)
Language:

Okean 1 - Orbit

View from above orbital plane
View from above orbital plane
View from above satellite
View from above satellite

Ground track
Ground track

The orbit data is extracted from the following two-line orbital elements,

1 19274U 88056A   18016.37203041 -.00000074  00000-0 -70868-5 0  9993
2 19274  82.5063 303.3907 0010707 317.0481  42.9909 15.05912867607036
Epoch (UTC): 16 January 2018 08:55:43
Eccentricity: 0.0010707
inclination: 82.5063°
perigee height: 541 km
apogee height: 556 km
right ascension of ascending node: 303.3907°
argument of perigee: 317.0481°
revolutions per day: 15.05912867
mean anomaly at epoch: 42.9909°
orbit number at epoch: 60703

The dashed part of the orbit path shows where the satellite is in the earth's shadow,  

DLR